Weather Roundup
Issued by NWS Chicago, IL

Home | Current Version | Previous Version | Graphics & Text | Print | Product List | Glossary On
Versions: 1 2 3 4 5 6 7 8 9 10 11 12 13 14 15 16 17 18 19 20 21 22 23 24 25 26 27 28 29 30 31 32 33 34 35 36 37 38 39 40 41 42 43 44 45 46 47 48 49 50
000
NZUS59 KLOT 250510
HRRLOT

CHICAGO AREA WEATHER ROUNDUP
NATIONAL WEATHER SERVICE CHICAGO/ROMEOVILLE IL
1200 AM CDT FRI APR 25 2014

NOTE: "FAIR" INDICATES FEW OR NO CLOUDS BELOW 12,000 FEET WITH NO
SIGNIFICANT WEATHER AND/OR OBSTRUCTIONS TO VISIBILITY.

* THESE STATIONS ARE NOT UNDER NWS QUALITY CONTROL. THEY ALSO MAY NOT
  REPORT WEATHER SUCH AS PRECIPITATION OR FOG.

ILZ005-006-012>014-019>023-250600-
NORTHEAST ILLINOIS

CITY           SKY/WX    TMP DP  RH WIND       PRES   REMARKS
OHARE          LGT RAIN  52  38  58 E6        29.63F
MIDWAY         LGT RAIN  58  32  37 SE13      29.63F
AURORA         LGT RAIN  55  39  54 E10       29.62F
LANSING*       CLOUDY    56  30  36 SE14      29.65F
JOLIET*        CLOUDY    56  34  43 SE10G20   29.63R
WAUKEGAN       LGT RAIN  45  34  65 E12       29.66F
DUPAGE AIRPORT LGT RAIN  53  39  59 E5        29.63F
WHEELING       LGT RAIN  52  34  50 E8        29.66F
KANKAKEE*      CLOUDY    56  38  50 SE9       29.65F
MORRIS*        RAIN      56  38  52 SE10      29.62S
LEWIS AIRPORT* CLOUDY    57  34  41 SE16G22   29.62S
NORTHERLY IS     N/A     49  40  71 E6          N/A
$$

WIZ051-052-058>065-066-070>072-250600-
SOUTHEAST WISCONSIN

CITY           SKY/WX    TMP DP  RH WIND       PRES   REMARKS
MILWAUKEE      LGT RAIN  45  35  68 SE15G21   29.71F
KENOSHA*       LGT RAIN  46  36  68 SE9       29.68F
RACINE*        LGT RAIN  45  35  68 SE12      29.70F
BURLINGTON     LGT RAIN  44  39  81 MISG      29.69S
WAUKESHA       LGT RAIN  43  37  81 E6        29.71S
WEST BEND      LGT RAIN  41  36  81 SE3       29.72R
$$

INZ001>003-010>013-019-020-250600-
NORTHWEST INDIANA

CITY           SKY/WX    TMP DP  RH WIND       PRES   REMARKS
GARY*          CLOUDY    58  29  33 SE14G23   29.65F
MICHIGAN CITY* NOT AVBL
RENSSELAER*    NOT AVBL
VALPARAISO     CLOUDY    54  31  41 SE14      29.68F
$$

LMZ740>746-250600-
SOUTHERN LAKE MICHIGAN

STATION/POSITION TIME  SKY/WX   TEMP WIND        PRES    VSBY
                                AIR  DIR/SP/G
                 (UTC)          (F)  (DEG/KT/KT) (MB)    (MI)
HARRISON CRIB    0500            48  100/ 14/ 15   N/A
BURNHAM HARBOR   0500            50  100/  8       N/A
CALUMET HARBOR   0500            57  110/ 12/ 17 1004.9F
BURNS HARBOR     NOT AVBL
MICHIGAN CITY    0500            54  100/ 12/ 18   N/A
$$

ABBREVIATIONS USED IN REMARKS
   TC - TEMPERATURE IN CELSIUS
  WCI - WIND CHILL INDEX
   HX - HEAT INDEX
  VSB - VISIBILITY
$$



USA.gov is the U.S. government's official web portal to all federal, state and local government web resources and services.